[[{"header":{"parameterUnit":"m.s-1","parameterCategory":1,"la1":30.2991,"la2":30.254,"lo1":-89.0895,"lo2":-89.0444,"dy":0.0017,"dx":0.0017,"nx":28,"ny":28,"refTime":"2024-08-29T21:00:00:Z","depth":0,"parameterNumber":2,"parameterNumberName":"U-component_of_WINDS"},"data":[0,0,0,0,0,0,0,0,0,0,0,0,0,0,0,0,0,0,0,0,0,0,0,0,0,0,0,0,0,0,0,0,0,0,0,0,0,0,0,0,0,0,0,0,0,0,0,0,0,0,0,0,0,0,0,0,0,0,-5.0478,-5.0479,0,-5.0573,-5.0574,-5.0575,-5.0488,-5.0485,-5.0481,-5.0478,-5.0571,-5.0576,-5.0582,0,0,0,0,0,0,0,0,0,0,0,0,0,-5.0219,-5.0224,-5.0478,-5.0479,-5.048,-5.0572,-5.0574,-5.0575,-5.0489,-5.0485,-5.0481,-5.0477,-5.0569,-5.0576,-5.0582,0,0,0,0,0,0,0,0,0,0,0,0,0,-5.0324,-5.0226,-5.0478,-5.0449,-5.0447,-5.0572,-5.0574,-5.0575,-5.049,-5.0485,-5.0479,-5.0475,-5.0567,-5.0575,-5.0583,-5.0741,0,0,-5.061,-5.0613,0,0,0,0,0,0,0,0,-5.0318,-5.0334,-5.0452,-5.0451,-5.0449,-5.0513,-5.0516,-5.0631,-5.0491,-5.0474,-5.0478,-5.0472,-5.0556,-5.0565,-5.0594,-5.0745,-5.0749,-5.061,-5.0616,-5.0619,-5.0622,0,0,0,0,0,0,0,-5.0311,-5.0329,-5.0515,-5.0454,-5.0452,-5.0429,-5.0439,-5.0537,-5.0543,-5.0475,-5.0469,-5.0481,-5.0554,-5.0586,-5.0595,-5.075,-5.061,-5.0618,-5.0623,-5.0626,-5.1033,-5.1038,0,0,0,0,0,0,-5.0307,-5.0323,-5.0512,-5.0518,-5.037,-5.0438,-5.0449,-5.0498,-5.0541,-5.0543,-5.0486,-5.0477,-5.0574,-5.0585,-5.0598,-5.0782,-5.0619,-5.0627,-5.0632,-5.1027,-5.1034,-5.104,0,0,0,0,0,0,-5.0302,-5.0325,-5.0508,-5.0419,-5.0441,-5.0448,-5.0505,-5.0503,-5.0534,-5.055,-5.055,-5.0517,-5.057,-5.0586,-5.0706,-5.0785,-5.0631,-5.0639,-5.102,-5.1029,-5.1037,-5.1154,0,0,0,0,0,0,-5.0295,-5.0324,-5.0384,-5.0421,-5.0446,-5.0616,-5.051,-5.0508,-5.055,-5.0539,-5.0579,-5.0581,-5.0567,-5.0693,-5.0714,-5.0794,-5.0645,-5.1013,-5.1024,-5.1034,-5.1143,-5.1166,-5.1185,0,0,0,0,0,-5.0286,-5.0413,-5.0388,-5.0411,-5.0522,-5.0621,-5.0634,-5.0617,-5.0557,-5.0617,-5.0627,-5.058,-5.0774,-5.0706,-5.0729,-5.0812,-5.1008,-5.1021,-5.1034,-5.1134,-5.1161,-5.1184,0,0,0,0,0,0,-5.0384,-5.0418,-5.039,-5.0533,-5.0575,-5.0606,-5.0681,-5.0647,-5.0705,-5.0693,-5.0668,-5.0678,-5.0803,-5.082,-5.0745,-5.0966,-5.0881,-5.0899,-5.0949,-5.0975,-5.0996,-5.0987,-5.0653,0,0,0,0,0,-5.0423,-5.0501,-5.0526,-5.065,-5.0672,-5.0674,-5.0716,-5.0699,-5.074,-5.0757,-5.0775,-5.0816,-5.0886,-5.0932,-5.0998,-5.1147,-5.1152,-5.1215,-5.1236,-5.1253,-5.1267,-5.1344,-5.1372,-5.1082,-5.1082,-5.1082,0,0,-5.0502,-5.0531,-5.0581,-5.067,-5.07,-5.078,-5.0689,-5.0777,-5.0835,-5.077,-5.0883,-5.0899,-5.0942,-5.1077,-5.1137,-5.1094,-5.1349,-5.1269,-5.1283,-5.1288,-5.136,-5.1388,-5.1412,-5.1091,-5.1089,-5.1088,0,0,-5.0687,-5.0719,-5.0823,-5.0856,-5.0904,-5.0904,-5.0929,-5.0966,-5.0974,-5.1088,-5.104,-5.1108,-5.123,-5.1262,-5.1295,-5.1493,-5.1451,-5.1516,-5.1622,-5.1698,-5.1721,-5.1741,-5.1808,-5.1833,-5.1531,-5.1531,-5.1531,0,-5.078,-5.0899,-5.0882,-5.0974,-5.1013,-5.096,-5.1064,-5.1097,-5.1163,-5.119,-5.1143,-5.1293,-5.132,-5.1459,-5.1508,-5.1537,-5.1563,-5.1509,-5.1719,-5.1739,-5.1758,-5.1821,-5.1847,-5.1538,-5.1538,-5.1537,-5.1536,0,-5.1009,-5.1092,-5.1172,-5.1237,-5.1286,-5.1385,-5.138,-5.1431,-5.1411,-5.1416,-5.1531,-5.1561,-5.163,-5.1663,-5.1644,-5.18,-5.1772,-5.1723,-5.1636,-5.1793,-5.1852,-5.1877,-5.1549,-5.1546,-5.1544,-5.1542,0,0,-5.1255,-5.1311,-5.134,-5.1368,-5.1417,-5.148,-5.1576,-5.1645,-5.1688,-5.1736,-5.1813,-5.1918,-5.1872,-5.191,-5.1894,-5.1961,-5.2112,-5.1903,-5.1903,-5.1937,-5.2282,-5.2315,-5.2344,-5.2087,-5.2091,-5.2095,-5.2277,0,-5.1439,-5.1605,-5.1592,-5.1748,-5.1823,-5.1775,-5.1857,-5.1895,-5.1903,-5.1967,-5.1975,-5.2048,-5.1985,-5.2006,-5.2071,-5.208,-5.218,-5.2067,-5.2155,-5.2158,-5.2141,-5.2376,-5.2412,-5.2582,-5.23,-5.2304,-5.2307,0,-5.1674,-5.1731,-5.1895,-5.1931,-5.1963,-5.2037,-5.2098,-5.2162,-5.2203,-5.2204,-5.2246,-5.2219,-5.2313,-5.2228,-5.2356,-5.2279,-5.2315,-5.2325,-5.2331,-5.2335,-5.2239,-5.2382,-5.2636,-5.266,-5.2344,-5.2341,-5.2339,0,-5.1832,-5.195,-5.2063,-5.2089,-5.2136,-5.2189,-5.221,-5.2247,-5.2289,-5.2343,-5.237,-5.2434,-5.2468,-5.2518,-5.2508,-5.2448,-5.2637,-5.2552,-5.2638,-5.2638,-5.2676,-5.2673,-5.2935,-5.2707,-5.2706,-5.2706,-5.2705,0,-5.2036,-5.2137,-5.2134,-5.2203,-5.2314,-5.2299,-5.2409,-5.2424,-5.2458,-5.2527,-5.2491,-5.2556,-5.2542,-5.2607,-5.26,-5.2705,-5.2722,-5.2723,-5.2719,-5.2724,-5.2723,-5.2743,-5.2729,-5.2713,-5.2711,-5.271,-5.2709,0,-5.223,-5.2232,-5.2351,-5.2386,-5.2397,-5.2477,-5.2506,-5.257,-5.2576,-5.2664,-5.2684,-5.2692,-5.2766,-5.2763,-5.2848,-5.2843,-5.2971,-5.2956,-5.2957,-5.2952,-5.3036,-5.3026,-5.3316,-5.3352,-5.3105,-5.3107,-5.3109,0,-5.2357,-5.2434,-5.2477,-5.2522,-5.2547,-5.262,-5.2662,-5.2651,-5.2696,-5.275,-5.2807,-5.2879,-5.2935,-5.3056,-5.3068,-5.3132,-5.3115,-5.3213,-5.3124,-5.3126,-5.3112,-5.3105,-5.3111,-5.3228,-5.3231,-5.3234,-5.3235,0,-5.2582,-5.258,-5.2643,-5.2708,-5.276,-5.281,-5.2856,-5.2894,-5.2887,-5.2941,-5.3017,-5.3061,-5.3147,-5.3218,-5.3279,-5.33,-5.3266,-5.3264,-5.3286,-5.3289,-5.3285,-5.3284,-5.2999,-5.3256,-5.3254,-5.3253,-5.3251,-5.3251,-5.2743,-5.2808,-5.2849,-5.2921,-5.2954,-5.2998,-5.3059,-5.3073,-5.3137,-5.3207,-5.3196,-5.3281,-5.332,-5.3399,-5.3426,-5.3491,-5.3456,-5.3489,-5.3497,-5.3504,-5.3511,-5.3279,-5.3503,-5.3502,-5.3501,-5.3501,-5.35,0,-5.2962,-5.2987,-5.3053,-5.3118,-5.3175,-5.3141,-5.319,-5.3238,-5.3314,-5.3354,-5.3411,-5.3497,-5.3566,-5.3585,-5.365,-5.3698,-5.3684,-5.3715,-5.3709,-5.3714,-5.3541,-5.3513,-5.3725,-5.3725,-5.3725,-5.3725,-5.3725,-5.3725,-5.3083,-5.319,-5.3192,-5.3315,-5.3338,-5.3421,-5.3452,-5.3491,-5.3523,-5.3622,-5.3679,-5.3691,-5.3722,-5.379,-5.385,-5.3854,-5.3878,-5.3914,-5.3911,-5.3749,-5.3726,-5.3704,-5.3678,-5.3921,-5.3921,-5.4078,-5.4079,-5.408]},{"header":{"parameterUnit":"m.s-1","parameterCategory":1,"la1":30.2991,"la2":30.254,"lo1":-89.0895,"lo2":-89.0444,"dy":0.0017,"dx":0.0017,"nx":28,"ny":28,"refTime":"2024-08-29T21:00:00:Z","depth":0,"parameterNumber":3,"parameterNumberName":"V-component_of_WINDS"},"data":[0,0,0,0,0,0,0,0,0,0,0,0,0,0,0,0,0,0,0,0,0,0,0,0,0,0,0,0,0,0,0,0,0,0,0,0,0,0,0,0,0,0,0,0,0,0,0,0,0,0,0,0,0,0,0,0,0,0,1.1447,1.1447,0,1.1476,1.1476,1.1477,1.1428,1.1427,1.1425,1.1423,1.1454,1.1456,1.1459,0,0,0,0,0,0,0,0,0,0,0,0,0,1.1352,1.1354,1.1447,1.1447,1.1448,1.1476,1.1476,1.1477,1.1429,1.1427,1.1425,1.1423,1.1453,1.1456,1.1459,0,0,0,0,0,0,0,0,0,0,0,0,0,1.1388,1.1355,1.1447,1.1427,1.1426,1.1476,1.1476,1.1477,1.1429,1.1427,1.1424,1.1422,1.1452,1.1456,1.1459,1.1531,0,0,1.147,1.1472,0,0,0,0,0,0,0,0,1.1386,1.1392,1.143,1.1429,1.1427,1.1446,1.1454,1.1495,1.143,1.1428,1.1423,1.1421,1.1453,1.1457,1.1468,1.1532,1.1533,1.147,1.1473,1.1474,1.1475,0,0,0,0,0,0,0,1.1384,1.139,1.1458,1.143,1.1429,1.1417,1.142,1.1462,1.1454,1.1428,1.1424,1.1428,1.1452,1.1464,1.1468,1.1534,1.147,1.1473,1.1476,1.1477,1.166,1.1662,0,0,0,0,0,0,1.1384,1.1389,1.1458,1.1459,1.14,1.1421,1.1424,1.1442,1.1454,1.1453,1.143,1.1426,1.146,1.1464,1.1469,1.1554,1.1474,1.1477,1.1479,1.1657,1.166,1.1663,0,0,0,0,0,0,1.1382,1.139,1.1456,1.1423,1.1431,1.1425,1.1447,1.1444,1.1456,1.1456,1.1454,1.1444,1.1458,1.1464,1.1516,1.1554,1.1479,1.1482,1.1654,1.1658,1.1662,1.1724,0,0,0,0,0,0,1.1379,1.139,1.1416,1.1424,1.1433,1.1502,1.1449,1.1447,1.1462,1.1457,1.1468,1.1467,1.1456,1.1511,1.1519,1.1558,1.1485,1.165,1.1656,1.1661,1.1719,1.173,1.174,0,0,0,0,0,1.1376,1.1432,1.1418,1.1426,1.1465,1.1505,1.151,1.1495,1.1466,1.1493,1.1493,1.1467,1.1549,1.1517,1.1526,1.1566,1.1648,1.1654,1.166,1.1714,1.1728,1.1739,0,0,0,0,0,0,1.1429,1.1433,1.1417,1.1477,1.1491,1.1496,1.153,1.151,1.1533,1.1527,1.1508,1.1511,1.1568,1.1572,1.1536,1.1636,1.1593,1.1602,1.1631,1.1644,1.1655,1.1652,1.1488,0,0,0,0,0,1.1448,1.1479,1.1481,1.1534,1.1542,1.1535,1.1552,1.154,1.1553,1.1559,1.1562,1.1577,1.1606,1.1625,1.1652,1.1719,1.1722,1.1752,1.1762,1.1771,1.1778,1.1815,1.1829,1.1684,1.1684,1.1683,0,0,1.1487,1.1493,1.1514,1.1545,1.1554,1.1588,1.154,1.1577,1.1602,1.1564,1.1614,1.1617,1.1632,1.1693,1.172,1.1698,1.1819,1.1778,1.1785,1.1788,1.1823,1.1837,1.1849,1.1688,1.1687,1.1686,0,0,1.1575,1.1583,1.1628,1.1639,1.1654,1.1649,1.166,1.1669,1.167,1.1719,1.1692,1.1722,1.1772,1.1784,1.1797,1.1892,1.187,1.1901,1.1956,1.1992,1.2004,1.2014,1.2049,1.2061,1.1909,1.1909,1.1909,0,1.1622,1.1671,1.1654,1.1694,1.1709,1.1677,1.1724,1.1735,1.1758,1.1769,1.1745,1.1808,1.1816,1.188,1.1903,1.1914,1.1927,1.19,1.2003,1.2013,1.2023,1.2056,1.2069,1.1913,1.1912,1.1912,1.1912,0,1.1728,1.1762,1.1798,1.1821,1.184,1.1883,1.1874,1.1896,1.1883,1.1881,1.1933,1.1941,1.1969,1.1984,1.1971,1.2046,1.2032,1.2006,1.1963,1.204,1.2071,1.2084,1.1918,1.1917,1.1916,1.1915,0,0,1.1849,1.1864,1.1877,1.1888,1.1903,1.1929,1.1972,1.1999,1.2019,1.2036,1.2072,1.2116,1.2092,1.2107,1.2096,1.2128,1.2204,1.2098,1.2098,1.2118,1.2288,1.2308,1.2323,1.219,1.2192,1.2194,1.2287,0,1.1937,1.201,1.1997,1.2068,1.21,1.2071,1.2108,1.2122,1.2122,1.215,1.215,1.2181,1.2147,1.2156,1.2187,1.2188,1.2238,1.2181,1.2223,1.2225,1.222,1.2339,1.2359,1.2447,1.2299,1.2301,1.2302,0,1.205,1.2072,1.2145,1.2156,1.217,1.2203,1.2228,1.2255,1.2271,1.2268,1.2286,1.2269,1.2312,1.2269,1.2329,1.229,1.2307,1.2311,1.2314,1.2317,1.2268,1.2345,1.2474,1.2488,1.2321,1.2319,1.2318,0,1.2132,1.218,1.223,1.224,1.2254,1.2279,1.2286,1.2299,1.2317,1.2339,1.2351,1.2378,1.2393,1.2416,1.2407,1.2376,1.2469,1.2425,1.2469,1.247,1.249,1.2489,1.2624,1.2501,1.25,1.25,1.25,0,1.2231,1.2278,1.2267,1.2298,1.235,1.2336,1.2388,1.2392,1.2404,1.2436,1.2413,1.2444,1.2431,1.2461,1.2455,1.2506,1.2513,1.2513,1.2511,1.2515,1.2515,1.2526,1.2519,1.2504,1.2503,1.2502,1.2502,0,1.2331,1.2326,1.2379,1.2389,1.2392,1.243,1.2438,1.2468,1.2467,1.2508,1.2517,1.2515,1.255,1.2544,1.2582,1.2578,1.2642,1.2632,1.2637,1.2635,1.268,1.2676,1.2826,1.2846,1.271,1.2711,1.2712,0,1.2395,1.243,1.2444,1.2464,1.2473,1.2505,1.2523,1.2512,1.2532,1.2553,1.2581,1.2614,1.2639,1.2696,1.2698,1.2728,1.2719,1.277,1.2723,1.2727,1.2721,1.2719,1.2723,1.2779,1.278,1.2782,1.2783,0,1.251,1.2506,1.2533,1.256,1.2583,1.2604,1.2623,1.2641,1.2631,1.2655,1.269,1.271,1.275,1.2783,1.2811,1.2819,1.28,1.2798,1.2809,1.2814,1.2816,1.2816,1.2662,1.2794,1.2793,1.2792,1.2791,1.2791,1.2594,1.2624,1.2639,1.2671,1.2684,1.2702,1.2731,1.2734,1.2763,1.2794,1.2785,1.2826,1.2842,1.2878,1.2889,1.2921,1.2902,1.2919,1.2924,1.2928,1.2934,1.2811,1.2926,1.2926,1.2925,1.2925,1.2925,0,1.2707,1.2716,1.2745,1.2772,1.2798,1.2778,1.2798,1.2821,1.2857,1.2873,1.2899,1.294,1.2973,1.2979,1.301,1.3034,1.3026,1.3043,1.3041,1.3043,1.2949,1.2935,1.3049,1.3049,1.3049,1.3049,1.3049,1.3049,1.277,1.282,1.2819,1.2876,1.2884,1.2923,1.2937,1.2954,1.2967,1.3015,1.3041,1.3045,1.3058,1.309,1.3119,1.312,1.3133,1.3153,1.3151,1.3062,1.305,1.3038,1.3026,1.3156,1.3156,1.3243,1.3244,1.3244]}]]